FENGYUN 1C DEB *, 47013

Orbit data source: Space-Track

FENGYUN 1C DEB *, 47013 is space debris in SSO originally from a launch on Mon, 10 May 1999 UTC launched from the Taiyaun Space Center, China (TSC). Fengyun 1C debris stems from the Chinese weather satellite Fengyun-1C, which was intentionally destroyed by a Chinese anti-satellite missile in 2007. This event dramatically increased the amount of space debris, with thousands of trackable fragments posing hazards to satellites and human spaceflight. The Fengyun 1C debris cloud has become a focal point in discussions about space sustainability and the need for international regulations to prevent the creation of new debris.

Loading next visibility...
Identifier
47013, 1999-025FAP
Orbit
SSO
Country
Flag of CNCN / PRC
Related business
Manufacturer
Unknown
Mission
Spacecraft
Bus & Motor
Unknown
Mass
Unknown
Launch date (UTC)
1999-05-10 (27 years ago)
Launch vehicle
Unknown
Launch site
Taiyaun Space Center, China (TSC)
Object type
Payload
Rocket body
Debris
Shape & HBR
Unknown shape, 0.1 m
Radar Cross Section
Small (<0.1 m²)

Expand to show TLE details & history
Last TLE update: 4 weeks ago

TLE from 4 weeks ago
0 FENGYUN 1C DEB *
1 47013U 99025FAP 26148.42035031  .00003551  00000-0  14751-2 0  9993
2 47013  98.0654 210.0780 0055134  31.7917 328.6574 14.26173386756344
Epoch: 2026-05-28T10:05Z
TLE epoch observation values (Epoch: 2026-05-28T10:05:18.266Z)
Latitude
-0.00002°
Longitude
172.78656°
Altitude
773.724 km
Speed
7.485 km/s
True Right ascension
14h 00m 18s
True Declination
0° 00' 00"
Sunlit
Object was in full shadow at epoch
Visualization orbit readout
Latitude
Unknown
Longitude
Unknown
Altitude
Unknown
Speed
Unknown
Apparent Right ascension
Unknown
Apparent Declination
Unknown
Sunlit
N/A
Visualization observer readout
Local Sidereal Time
21:37:35
Azimuth
Unknown
Elevation
Unknown
Doppler factor
Unknown
Orbital elements
Apogee altitude
841.256 km
Perigee altitude
762.085 km
Semi-major axis
7,179.808 km
Eccentricity
0.00551
Inclination
98.0654°
RAAN
210.078°
Arg. of periapsis
31.7917°
True anomaly
328.32683°
Mean anomaly
328.6574°
Eccentric anomaly
328.49231°
Mean motion
3.56758 °/min
Orbital period
100.91 mins
BSTAR
0.0014751
Loading maneuver chart data...
Computing Atmospheric mass density...
Loading historical data...
Loading historical data...
Loading historical data...
Loading historical data...
Loading historical data...
Loading historical data...
Loading historical data...

Documentation

Showing up to 5 results
|